CYUY

Rouyn-Noranda Airport

Airport
ICAO code
CYUY
IATA Code
YUY
Summary
ICAO Region
NAM
ICAO Territory
Location

Rouyn-Noranda, Quebec,

Serving
Rouyn-Noranda
Elevation
988 ft
Coordinates
48° 12' 30" N , 78° 49' 46" W
KCC
Metar
Observation
CYUY 070000Z 05005KT 15SM -SN OVC020 M10/M12 A3023 RMK SC8 PCPN VRY LGT SLP263
Station
Rouyn Airport
Date/Time
2022-12-07 00:00:00
Wind direction
50°
Wind speed
05 kts
Lowest cloud amount
overcast
Temperature
-10°C
Dew point
-12°C
Humidity
85%
Weather condition
light snow

Description

Rouyn-Noranda Airport, is located 7.5 nm east southeast of Rouyn-Noranda, Quebec, Canada.

Climatology

Humid Continental climate (Köppen climate classification Dfb) - Variable weather patterns and a large seasonal temperature variance. Summers are often warm and humid with frequent thunderstorms and winters can be very cold with frequent snowfall and persistent snow cover.

Runways

Designator Length Width Surface Rops
8/26 2281 46 ASP No/No

Airport map

Aerial View

SKYbrary Partners:

Safety knowledge contributed by: